FW8255 Weather Reports


time (UTC)temp
C
wind
direction
speed
KPH
gust
KPH
rain 1hr
cm
rain 24hr
cm
rain mn
cm
humidity
%
barometer
mb
20260510164417 13 331 8.0 11.3 0.00 0.00 0.00 43 1017.9
20260510163917 13 9 8.0 11.3 0.00 0.00 0.00 43 1017.8
20260510163413 13 21 4.8 12.9 0.00 0.00 0.00 46 1017.8
20260510162907 13 10 16.1 20.9 0.00 0.00 0.00 44 1017.6
20260510162405 13 17 9.7 16.1 0.00 0.00 0.00 44 1017.8
20260510161901 13 320 11.3 12.9 0.00 0.00 0.00 43 1017.8
20260510161357 13 346 3.2 20.9 0.00 0.00 0.00 42 1017.8
20260510160853 13 1 8.0 11.3 0.00 0.00 0.00 46 1017.6
20260510160350 13 347 8.0 11.3 0.00 0.00 0.00 48 1017.5
20260510155844 13 296 4.8 8.0 0.00 0.00 0.00 47 1017.6
20260510155342 13 337 1.6 8.0 0.00 0.00 0.00 48 1017.5
20260510154837 12 306 3.2 8.0 0.00 0.00 0.00 47 1017.3
20260510154333 12 349 4.8 4.8 0.00 0.00 0.00 50 1017.3
20260510153828 12 15 8.0 12.9 0.00 0.00 0.00 52 1017.4
20260510153324 13 12 6.4 9.7 0.00 0.00 0.00 52 1017.4
20260510152821 12 343 3.2 9.7 0.00 0.00 0.00 55 1017.4
20260510152318 12 355 4.8 9.7 0.00 0.00 0.00 52 1017.2
20260510151814 12 337 9.7 12.9 0.00 0.00 0.00 53 1017.2
20260510151312 12 335 9.7 14.5 0.00 0.00 0.00 52 1017.3
20260510150808 12 316 4.8 12.9 0.00 0.00 0.00 52 1017.4
20260510150304 12 311 11.3 12.9 0.00 0.00 0.00 51 1016.8
20260510145800 12 299 4.8 11.3 0.00 0.00 0.00 52 1016.8
20260510145257 12 359 6.4 16.1 0.00 0.00 0.00 53 1017.1
20260510144753 11 296 3.2 17.7 0.00 0.00 0.00 55 1016.9
20260510144249 12 301 6.4 11.3 0.00 0.00 0.00 54 1016.9
20260510143744 11 20 4.8 8.0 0.00 0.00 0.00 54 1016.8
20260510143240 11 0 4.8 14.5 0.00 0.00 0.00 53 1016.9
20260510142737 11 44 11.3 16.1 0.00 0.00 0.00 54 1016.8
20260510142234 11 14 8.0 12.9 0.00 0.00 0.00 53 1017.0
20260510141731 11 301 12.9 16.1 0.00 0.00 0.00 53 1016.8
20260510141229 11 9 4.8 12.9 0.00 0.00 0.00 53 1017.0
20260510140725 11 20 3.2 9.7 0.00 0.00 0.00 54 1016.8
20260510140220 10 357 9.7 16.1 0.00 0.00 0.00 54 1016.9
20260510135714 10 353 6.4 16.1 0.00 0.00 0.00 57 1016.7
20260510135211 10 351 8.0 12.9 0.00 0.00 0.00 61 1016.8
20260510134708 10 7 8.0 14.5 0.00 0.00 0.00 62 1016.8
20260510134205 10 355 3.2 16.1 0.00 0.00 0.00 65 1016.7
20260510133701 10 22 8.0 14.5 0.00 0.00 0.00 64 1016.8
20260510133156 10 344 6.4 14.5 0.00 0.00 0.00 63 1016.6
20260510132653 10 8 11.3 14.5 0.00 0.00 0.00 62 1016.5
20260510132150 10 322 8.0 9.7 0.00 0.00 0.00 67 1016.4
20260510131648 9 6 6.4 12.9 0.00 0.00 0.00 70 1016.4
20260510131145 9 324 3.2 8.0 0.00 0.00 0.00 72 1016.1
20260510130641 8 325 6.4 9.7 0.00 0.00 0.00 72 1016.1
20260510130139 8 349 9.7 14.5 0.00 0.00 0.00 71 1016.1
20260510125635 8 39 4.8 12.9 0.00 0.00 0.00 73 1015.9
20260510125131 8 335 6.4 24.1 0.00 0.00 0.00 73 1015.7
20260510124629 8 11 4.8 14.5 0.00 0.00 0.00 76 1016.0
20260510124125 8 9 4.8 9.7 0.00 0.00 0.00 78 1015.7
20260510123620 8 0 14.5 20.9 0.00 0.00 0.00 79 1015.4
20260510123116 8 7 8.0 14.5 0.00 0.00 0.00 80 1015.8
20260510122607 8 0 1.6 4.8 0.00 0.00 0.00 83 1015.6
20260510122103 8 8 3.2 9.7 0.00 0.00 0.00 83 1015.4
20260510121600 8 337 8.0 16.1 0.00 0.00 0.00 83 1015.4
20260510121057 8 13 14.5 16.1 0.00 0.00 0.00 84 1015.3
20260510120555 8 12 8.0 11.3 0.00 0.00 0.00 85 1015.3
20260510120050 8 344 6.4 9.7 0.00 0.00 0.00 86 1015.2
20260510115547 8 346 3.2 9.7 0.00 0.00 0.00 87 1014.7
20260510115044 8 346 4.8 9.7 0.00 0.00 0.00 88 1014.7
20260510114540 8 334 4.8 11.3 0.00 0.00 0.00 88 1014.6
20260510114036 8 335 4.8 9.7 0.00 0.00 0.00 89 1014.5
20260510113531 8 334 4.8 12.9 0.00 0.00 0.00 90 1014.2
20260510113029 8 357 6.4 12.9 0.00 0.00 0.00 90 1014.4
20260510112526 8 3 4.8 9.7 0.00 0.00 0.00 91 1014.2
20260510112022 8 343 6.4 9.7 0.00 0.00 0.00 91 1014.1
20260510111519 8 322 1.6 4.8 0.00 0.00 0.00 91 1014.0
20260510111015 8 327 3.2 3.2 0.00 0.00 0.00 92 1013.9
20260510110511 8 322 1.6 8.0 0.00 0.00 0.00 92 1013.6
20260510110008 8 332 3.2 4.8 0.00 0.00 0.00 92 1013.7
20260510105502 8 16 4.8 9.7 0.00 0.00 0.00 92 1013.6
20260510104958 8 355 3.2 11.3 0.00 0.00 0.00 92 1013.4
20260510104455 8 330 0.0 4.8 0.00 0.00 0.00 92 1013.3
20260510103951 8 359 6.4 9.7 0.00 0.00 0.00 92 1013.3
20260510103449 8 328 1.6 9.7 0.00 0.00 0.00 92 1012.9
20260510102944 8 317 1.6 3.2 0.00 0.00 0.00 92 1012.9
20260510102440 8 341 4.8 8.0 0.00 0.00 0.00 92 1012.9
20260510101937 8 14 3.2 4.8 0.00 0.00 0.00 92 1013.0
20260510101435 8 315 1.6 9.7 0.00 0.00 0.00 91 1012.5
20260510100933 8 334 1.6 3.2 0.00 0.00 0.00 91 1012.5
20260510100429 8 320 4.8 8.0 0.00 0.00 0.00 91 1012.7
20260510095925 8 353 6.4 8.0 0.00 0.00 0.00 92 1012.5
20260510095421 8 320 3.2 4.8 0.00 0.00 0.00 92 1012.6
20260510094920 8 333 1.6 3.2 0.00 0.00 0.00 92 1012.6
20260510094415 8 331 0.0 0.0 0.00 0.00 0.00 92 1012.7
20260510093911 8 338 1.6 4.8 0.00 0.00 0.00 92 1012.5
20260510093407 8 330 1.6 1.6 0.00 0.00 0.00 92 1012.2
20260510092903 8 330 0.0 0.0 0.00 0.00 0.00 92 1012.3
20260510092401 7 330 0.0 0.0 0.00 0.00 0.00 92 1012.2
20260510091855 7 330 0.0 0.0 0.00 0.00 0.00 92 1011.9
20260510091353 7 331 0.0 0.0 0.00 0.00 0.00 93 1012.0
20260510090849 7 332 1.6 1.6 0.00 0.00 0.00 94 1011.7
20260510090345 7 332 0.0 1.6 0.00 0.00 0.00 95 1011.5
20260510085841 7 332 0.0 1.6 0.00 0.00 0.00 95 1011.6
20260510085336 7 333 0.0 0.0 0.00 0.00 0.00 95 1011.5
20260510084832 7 333 0.0 1.6 0.00 0.00 0.00 94 1011.4
20260510084329 7 334 0.0 0.0 0.00 0.00 0.00 94 1011.3
20260510083826 7 333 1.6 1.6 0.00 0.00 0.00 94 1011.4
20260510083323 7 334 0.0 0.0 0.00 0.00 0.00 93 1011.3
20260510082818 8 334 0.0 0.0 0.00 0.00 0.00 92 1011.5
20260510082316 8 334 0.0 0.0 0.00 0.00 0.00 91 1011.1
20260510081814 8 334 0.0 0.0 0.00 0.00 0.00 90 1011.4
20260510081310 8 335 1.6 1.6 0.00 0.00 0.00 89 1011.1
20260510080807 8 334 0.0 1.6 0.00 0.00 0.00 87 1011.0
20260510080302 9 332 1.6 1.6 0.00 0.00 0.00 85 1011.0
20260510075759 9 326 0.0 0.0 0.00 0.00 0.00 85 1010.8
20260510075256 9 330 0.0 1.6 0.00 0.00 0.00 84 1010.8
20260510074753 9 326 0.0 3.2 0.00 0.00 0.00 84 1010.6
20260510074250 9 338 1.6 8.0 0.00 0.00 0.00 83 1010.6
20260510073746 9 327 1.6 4.8 0.00 0.00 0.00 84 1010.4
20260510073242 9 335 4.8 4.8 0.00 0.00 0.00 84 1010.5
20260510072737 10 328 3.2 4.8 0.00 0.00 0.00 83 1010.5
20260510072234 10 337 1.6 3.2 0.00 0.00 0.00 83 1010.4
20260510071731 10 349 6.4 9.7 0.00 0.00 0.00 82 1010.5
20260510071228 10 308 6.4 11.3 0.00 0.00 0.00 83 1010.3
20260510070726 10 348 6.4 11.3 0.00 0.00 0.00 84 1010.2
20260510070223 10 5 4.8 9.7 0.00 0.00 0.00 86 1010.2
20260510065718 10 336 8.0 12.9 0.00 0.00 0.00 88 1009.9
20260510065214 10 349 3.2 9.7 0.00 0.00 0.00 94 1009.8
20260510064711 9 9 8.0 12.9 0.00 0.00 0.00 97 1009.8
20260510064209 10 9 6.4 11.3 0.00 0.00 0.00 99 1009.9
20260510063705 10 0 4.8 12.9 0.00 0.00 0.00 99 1009.8
20260510063201 10 2 6.4 11.3 0.00 0.00 0.00 99 1009.6
20260510062658 10 345 1.6 11.3 0.00 0.00 0.00 99 1009.8
20260510062154 10 14 3.2 9.7 0.00 0.00 0.00 99 1009.8
20260510061649 10 339 4.8 14.5 0.00 0.00 0.00 99 1009.8
20260510061147 11 329 8.0 12.9 0.00 0.00 0.00 99 1009.6
20260510060643 11 320 0.0 1.6 0.00 0.00 0.00 99 1009.5
20260510060140 11 325 3.2 3.2 0.00 0.00 0.00 99 1009.3
20260510055636 11 317 0.0 0.0 0.00 0.00 0.00 99 1009.5
20260510055134 11 319 0.0 0.0 0.00 0.00 0.00 99 1009.1
20260510054629 11 320 0.0 0.0 0.00 0.00 0.00 99 1009.4
20260510054125 11 319 0.0 1.6 0.00 0.00 0.00 99 1009.2
20260510053624 11 319 0.0 0.0 0.00 0.00 0.00 99 1009.2
20260510053121 11 302 0.0 1.6 0.00 0.00 0.00 99 1009.3
20260510052617 11 316 0.0 0.0 0.00 0.00 0.00 99 1009.3
20260510052114 11 313 0.0 0.0 0.00 0.00 0.00 99 1009.2
20260510051609 11 322 0.0 1.6 0.00 0.00 0.00 99 1009.1
20260510051107 11 353 1.6 4.8 0.00 0.00 0.00 99 1009.0
20260510050604 11 324 1.6 3.2 0.00 0.00 0.00 99 1008.8
20260510050100 11 315 0.0 0.0 0.00 0.00 0.00 99 1008.5
20260510045558 11 314 0.0 1.6 0.00 0.00 0.00 99 1008.2
20260510045053 11 311 0.0 1.6 0.00 0.00 0.00 99 1008.1
20260510044550 11 310 0.0 1.6 0.00 0.00 0.00 99 1008.0
20260510044048 11 304 1.6 3.2 0.00 0.00 0.00 99 1007.8
20260510043543 11 315 0.0 1.6 0.00 0.00 0.00 99 1007.9
20260510043039 11 290 1.6 1.6 0.00 0.00 0.00 99 1007.9
20260510042533 11 306 0.0 1.6 0.00 0.00 0.00 99 1008.0
20260510042028 11 301 0.0 1.6 0.00 0.00 0.00 99 1007.8
20260510041526 11 304 0.0 3.2 0.00 0.00 0.00 99 1007.9
20260510041023 11 286 1.6 3.2 0.00 0.00 0.00 99 1007.9
20260510040519 11 311 0.0 1.6 0.00 0.00 0.00 99 1007.9
20260510040015 11 314 0.0 0.0 0.00 1.30 1.30 99 1007.8
20260510035512 12 302 1.6 1.6 0.00 1.30 1.30 99 1007.8
20260510035011 12 311 0.0 1.6 0.00 1.30 1.30 99 1007.9
20260510034510 12 314 0.0 0.0 0.00 1.30 1.30 98 1007.7
20260510034006 12 315 0.0 3.2 0.30 1.30 1.30 98 1007.7
20260510033502 12 330 1.6 1.6 0.79 1.30 1.30 98 1007.7
20260510033001 12 257 6.4 11.3 0.48 1.24 1.24 99 1008.2
20260510032457 12 305 0.0 3.2 0.00 1.17 1.17 99 1007.9
20260510031957 12 251 1.6 3.2 0.13 1.17 1.17 99 1007.9
20260510031452 12 254 4.8 9.7 0.13 1.17 1.17 99 1007.9
20260510030949 12 245 3.2 9.7 0.18 1.14 1.14 99 1008.3
20260510030444 12 313 0.0 1.6 0.18 1.14 1.14 99 1008.1
20260510025942 12 272 3.2 3.2 0.00 1.12 1.12 99 1007.9
20260510025439 12 305 0.0 3.2 0.00 1.12 1.12 99 1007.8
20260510024936 12 287 3.2 3.2 0.00 1.12 1.12 99 1007.6
20260510024433 12 308 1.6 3.2 0.00 1.12 1.12 99 1008.2
20260510023928 12 305 1.6 1.6 0.00 1.12 1.12 99 1007.8
20260510023425 12 315 1.6 1.6 0.00 1.12 1.12 99 1007.6
20260510022922 12 283 3.2 3.2 0.00 1.12 1.12 99 1007.5
20260510022421 12 312 0.0 3.2 0.30 1.12 1.12 99 1008.0
20260510021920 12 225 9.7 12.9 0.79 1.12 1.12 99 1008.3
20260510021419 12 268 8.0 12.9 0.48 1.07 1.07 99 1008.8
20260510020915 12 320 0.0 8.0 0.00 0.99 0.99 99 1008.0
20260510020410 12 311 0.0 1.6 0.00 0.99 0.99 99 1007.5
20260510015906 11 316 0.0 1.6 0.00 0.99 0.99 99 1007.1
20260510015402 11 311 0.0 3.2 0.00 0.99 0.99 99 1007.2
20260510014857 11 330 0.0 0.0 0.00 0.99 0.99 99 1007.2
20260510014355 11 316 0.0 0.0 0.00 0.99 0.99 99 1007.2
20260510013851 11 315 0.0 0.0 0.00 0.99 0.99 99 1007.0
20260510013346 11 352 0.0 0.0 0.00 0.99 0.99 99 1007.0
20260510012841 11 322 0.0 0.0 0.00 0.99 0.99 99 1007.0
20260510012341 11 310 0.0 0.0 0.00 0.99 0.99 99 1007.1
20260510011837 11 328 0.0 0.0 0.00 0.99 0.99 99 1006.9
20260510011332 12 328 0.0 0.0 0.00 0.99 0.99 99 1006.9
20260510010829 12 319 0.0 0.0 0.00 0.99 0.99 99 1006.7
20260510010326 12 317 0.0 0.0 0.00 0.99 0.99 99 1006.7
20260510005822 12 316 0.0 0.0 0.00 0.99 0.99 99 1006.8
20260510005319 12 316 0.0 0.0 0.00 0.99 0.99 99 1006.9
20260510004817 12 327 0.0 0.0 0.00 0.99 0.99 98 1006.6
20260510004314 12 310 0.0 1.6 0.00 0.99 0.99 98 1006.6
20260510003812 12 317 0.0 0.0 0.00 0.99 0.99 98 1006.6
20260510003308 12 307 0.0 1.6 0.00 0.99 0.99 97 1006.9
20260510002807 12 290 1.6 3.2 0.00 0.99 0.99 97 1006.7
20260510002307 12 303 1.6 3.2 0.00 0.99 0.99 96 1006.7
20260510001801 12 253 1.6 3.2 0.00 0.99 0.99 96 1006.6
20260510001259 12 304 3.2 9.7 0.00 0.99 0.99 96 1006.7
20260510000754 12 283 4.8 11.3 0.00 0.99 0.99 96 1006.9
20260510000253 12 261 4.8 11.3 0.00 0.99 0.99 96 1006.6
20260509235749 12 265 3.2 11.3 0.00 0.99 0.99 96 1006.6
20260509235246 12 287 3.2 8.0 0.13 0.99 0.99 96 1006.8
20260509234741 12 299 3.2 8.0 0.18 0.97 0.97 96 1006.8
20260509234238 12 297 3.2 11.3 0.30 0.97 0.97 96 1006.8
20260509233737 12 263 14.5 17.7 0.30 0.94 0.94 96 1006.9
20260509233234 12 240 9.7 17.7 0.30 0.91 0.91 95 1007.2
20260509232730 12 254 6.4 8.0 0.30 0.89 0.89 96 1007.0
20260509232227 12 291 3.2 9.7 0.61 0.86 0.86 96 1006.6
20260509231724 12 277 11.3 14.5 0.61 0.84 0.84 95 1006.9
20260509231221 13 310 6.4 17.7 0.79 0.76 0.76 95 1006.8
20260509230719 13 321 8.0 14.5 1.07 0.71 0.71 93 1007.1
20260509230215 14 292 12.9 29.0 1.19 0.64 0.64 91 1007.1
20260509225710 17 354 17.7 24.1 0.43 0.51 0.51 80 1006.3
20260509225206 20 240 11.3 14.5 0.00 0.43 0.43 60 1005.1
20260509224702 20 238 14.5 17.7 0.00 0.43 0.43 60 1004.5
20260509224159 20 232 9.7 17.7 0.00 0.43 0.43 60 1004.6
20260509223656 20 261 4.8 11.3 0.00 0.43 0.43 60 1004.1
20260509223153 20 242 17.7 20.9 0.00 0.43 0.43 58 1004.0
20260509222650 20 206 12.9 27.4 0.00 0.43 0.43 57 1003.9
20260509222146 20 245 8.0 22.5 0.00 0.43 0.43 57 1004.1
20260509221642 20 252 8.0 11.3 0.00 0.43 0.43 58 1004.1
20260509221137 20 192 4.8 11.3 0.00 0.43 0.43 57 1004.1
20260509220634 20 246 4.8 24.1 0.00 0.43 0.43 59 1004.2
20260509220130 20 231 14.5 20.9 0.00 0.43 0.43 58 1004.0
20260509215626 20 273 3.2 17.7 0.00 0.43 0.43 59 1004.1
20260509215123 20 239 3.2 25.7 0.00 0.43 0.43 60 1004.2
20260509214620 20 215 8.0 17.7 0.00 0.43 0.43 59 1004.3
20260509214117 21 313 8.0 32.2 0.00 0.43 0.43 59 1004.2
20260509213613 21 271 4.8 17.7 0.00 0.43 0.43 58 1004.2
20260509213109 21 308 11.3 24.1 0.00 0.43 0.43 57 1004.0
20260509212607 21 247 9.7 24.1 0.00 0.43 0.43 58 1003.9
20260509212104 21 227 14.5 22.5 0.00 0.43 0.43 57 1004.1
20260509211600 21 164 11.3 27.4 0.00 0.43 0.43 59 1003.8
20260509211056 21 203 14.5 25.7 0.00 0.43 0.43 59 1004.1
20260509210553 21 252 16.1 22.5 0.00 0.43 0.43 60 1004.0
20260509210050 21 257 24.1 35.4 0.00 0.43 0.43 57 1004.4
20260509205544 21 221 12.9 22.5 0.00 0.43 0.43 60 1004.3
20260509205039 21 275 4.8 22.5 0.00 0.43 0.43 60 1004.6
20260509204536 21 222 6.4 11.3 0.00 0.43 0.43 60 1004.5
20260509204032 21 205 6.4 12.9 0.00 0.43 0.43 60 1004.5
20260509203527 20 123 6.4 25.7 0.00 0.43 0.43 61 1004.9
20260509203027 20 243 16.1 38.6 0.00 0.43 0.43 60 1004.9
20260509202521 20 240 8.0 20.9 0.00 0.43 0.43 62 1004.8
20260509202017 20 248 14.5 22.5 0.00 0.43 0.43 64 1005.1
20260509201512 20 216 16.1 24.1 0.00 0.43 0.43 62 1005.0
20260509201010 20 158 4.8 20.9 0.00 0.43 0.43 63 1005.1
20260509200504 20 212 6.4 25.7 0.00 0.43 0.43 63 1005.1
20260509200001 20 92 8.0 16.1 0.00 0.43 0.43 64 1005.4
20260509195456 20 238 11.3 17.7 0.00 0.43 0.43 62 1005.3
20260509194955 20 273 6.4 16.1 0.00 0.43 0.43 62 1005.5
20260509194451 20 282 8.0 14.5 0.00 0.43 0.43 60 1005.3
20260509193949 20 238 14.5 24.1 0.00 0.43 0.43 60 1005.5
20260509193448 20 252 19.3 22.5 0.00 0.43 0.43 60 1005.5
20260509192945 20 263 19.3 29.0 0.00 0.43 0.43 60 1005.5
20260509192442 20 218 11.3 16.1 0.00 0.43 0.43 63 1005.7
20260509191937 20 264 6.4 12.9 0.00 0.43 0.43 64 1005.8
20260509191432 20 282 8.0 9.7 0.00 0.43 0.43 63 1005.5
20260509190928 20 235 6.4 22.5 0.00 0.43 0.43 64 1005.9
20260509190426 20 275 4.8 20.9 0.00 0.43 0.43 65 1006.1
20260509185923 19 181 8.0 20.9 0.00 0.43 0.43 66 1006.3
20260509185420 18 243 8.0 16.1 0.00 0.43 0.43 66 1006.1
20260509184917 18 226 4.8 20.9 0.00 0.43 0.43 66 1006.3
20260509184414 19 241 19.3 25.7 0.00 0.43 0.43 65 1006.4
20260509183911 18 265 17.7 20.9 0.00 0.43 0.43 66 1006.2
20260509183405 19 259 19.3 24.1 0.00 0.43 0.43 64 1006.3
20260509182902 18 249 9.7 12.9 0.00 0.43 0.43 67 1006.2
20260509182359 18 262 14.5 17.7 0.00 0.43 0.43 66 1006.1
20260509181856 18 254 14.5 22.5 0.00 0.43 0.43 67 1006.2
20260509181353 18 116 6.4 22.5 0.00 0.43 0.43 67 1006.2
20260509180851 19 95 8.0 11.3 0.00 0.43 0.43 67 1006.2
20260509180346 19 180 6.4 17.7 0.00 0.43 0.43 66 1006.2
20260509175843 19 262 11.3 14.5 0.00 0.43 0.43 67 1006.2
20260509175340 18 251 8.0 12.9 0.00 0.43 0.43 66 1006.3
20260509174835 18 261 19.3 22.5 0.00 0.43 0.43 67 1006.2
20260509174332 18 235 16.1 17.7 0.00 0.43 0.43 65 1006.5
20260509173827 18 280 9.7 16.1 0.00 0.43 0.43 66 1006.4
20260509173323 17 217 6.4 12.9 0.00 0.43 0.43 68 1006.4
20260509172820 17 248 14.5 25.7 0.00 0.43 0.43 68 1006.8
20260509172316 17 215 14.5 24.1 0.00 0.43 0.43 68 1006.7
20260509171812 17 216 11.3 20.9 0.00 0.43 0.43 69 1006.5
20260509171308 17 235 12.9 16.1 0.00 0.43 0.43 69 1006.5
20260509170805 17 222 14.5 17.7 0.00 0.43 0.43 66 1006.6
20260509170301 17 267 9.7 14.5 0.00 0.43 0.43 68 1006.4
20260509165800 17 229 4.8 11.3 0.00 0.43 0.43 70 1006.5
20260509165255 17 174 4.8 17.7 0.00 0.43 0.43 71 1006.3
20260509164751 17 252 14.5 16.1 0.00 0.43 0.43 69 1006.1